Weather History for Point Salines, Grenada

Change the Weather History Date:

Wednesday, March 20, 2013

  Actual Average Record
Temperature  
Mean Temperature 80 °F -  
Max Temperature 86 °F 84 °F 87 °F (2002)
Min Temperature 75 °F 75 °F 73 °F (1997)
Cooling Degree Days 16    
Growing Degree Days 30 (Base 50)    
Moisture  
Dew Point 74 °F    
Average Humidity 79    
Maximum Humidity 89    
Minimum Humidity 58    
Precipitation  
Precipitation 0.00 in - - ()
Sea Level Pressure  
Sea Level Pressure 29.89 in    
Wind  
Wind Speed 16 mph ()    
Max Wind Speed 21 mph    
Max Gust Speed 30 mph    
Visibility 8.1 miles    
Events Rain    
Averages and records for this station are not official NWS values.
T = Trace of Precipitation, MM = Missing Value Source: Averaged Metar Reports

Daily Weather History Graph

Daily Weather History Graph

Search for Another Location

Airport:

Trip Planner

Search our weather history database for the weather conditions in past years. The results will help you decide how hot, cold, wet, or windy it might be!

Date:

Astronomy

Mar. 20, 2013 Rise Set
Actual Time 6:11 AM AST 6:17 PM AST
Civil Twilight 5:50 AM AST 6:39 PM AST
Nautical Twilight 5:25 AM AST 7:03 PM AST
Astronomical Twilight 5:00 AM AST 7:28 PM AST
Moon 12:42 PM AST (3/20) 12:52 AM AST (3/20)
Length of Visible Light 12h 49m
Length of Day
12h 06m
First Quarter, 59% of the Moon is Illuminated
Mar 20
First Quarter
Mar 27
Full
Apr 3
Last Quarter
Apr 10
New
Apr 18
First Quarter

Hourly Weather History & Observations

Time (AST) Temp. Heat Index Dew Point Humidity Pressure Visibility Wind Dir Wind Speed Gust Speed Precip Events Conditions
12:00 AM 78.8 °F - 73.4 °F 83% 29.89 in 6.2 mi East 16.1 mph - N/A   Scattered Clouds
1:00 AM 78.8 °F - 73.4 °F 83% 29.89 in 6.2 mi ESE 17.3 mph - N/A   Scattered Clouds
2:00 AM 79 °F - 73 °F 77% 29.88 in 16 mi ESE 20.7 mph - -   Partly Cloudy
2:00 AM 78.8 °F - 73.4 °F 83% 29.86 in 6.2 mi ESE 20.7 mph - N/A   Scattered Clouds
3:00 AM 78.8 °F - 73.4 °F 83% 29.86 in 6.2 mi ESE 18.4 mph - N/A   Partly Cloudy
4:00 AM 78.8 °F - 73.4 °F 83% 29.86 in 6.2 mi ESE 18.4 mph - N/A   Partly Cloudy
5:00 AM 78 °F - 73 °F 80% 29.88 in 16 mi ESE 18.4 mph - -   Scattered Clouds
5:00 AM 78.8 °F - 73.4 °F 83% 29.86 in 6.2 mi ESE 18.4 mph - N/A   Partly Cloudy
6:00 AM 77.0 °F - 73.4 °F 89% 29.89 in 6.2 mi ESE 16.1 mph - N/A   Mostly Cloudy
7:00 AM 78.8 °F - 73.4 °F 83% 29.89 in 6.2 mi ESE 16.1 mph 28.8 mph N/A   Mostly Cloudy
8:00 AM 80 °F - 74 °F 79% 29.92 in 12 mi ESE 18.4 mph - - Rain Light Rain Showers
8:00 AM 80.6 °F 86.2 °F 75.2 °F 84% 29.92 in 6.2 mi ESE 18.4 mph - N/A Rain Light Rain Showers
9:00 AM 82.4 °F 90.9 °F 77.0 °F 84% 29.92 in 6.2 mi ESE 17.3 mph - N/A   Mostly Cloudy
10:00 AM 82.4 °F 89.5 °F 75.2 °F 79% 29.95 in 6.2 mi SE 16.1 mph 29.9 mph N/A   Scattered Clouds
11:00 AM 83 °F - 73 °F 65% 29.95 in 12 mi SE 19.6 mph - -   Widespread Dust
11:00 AM 82.4 °F 88.2 °F 73.4 °F 74% 29.95 in 6.2 mi SE 19.6 mph - N/A   Scattered Clouds
12:00 PM 82.4 °F 89.5 °F 75.2 °F 79% 29.92 in 6.2 mi ESE 18.4 mph - N/A   Scattered Clouds
1:00 PM 82.4 °F 89.5 °F 75.2 °F 79% 29.95 in 6.2 mi SE 16.1 mph - N/A   Scattered Clouds
2:00 PM 83 °F - 74 °F 69% 29.88 in 11 mi ESE 18.4 mph - -   Partly Cloudy
2:00 PM 84.2 °F 92.3 °F 75.2 °F 74% 29.86 in 6.2 mi ESE 18.4 mph - N/A   Partly Cloudy
3:00 PM 84.2 °F 92.3 °F 75.2 °F 74% 29.86 in 6.2 mi SE 19.6 mph - N/A   Mostly Cloudy
4:00 PM 86.0 °F 95.1 °F 75.2 °F 70% 29.86 in 6.2 mi SE 18.4 mph - N/A   Mostly Cloudy
5:00 PM 83 °F - 71 °F 58% 29.86 in 14 mi ESE 19.6 mph - -   Scattered Clouds
5:00 PM 82.4 °F 89.5 °F 75.2 °F 79% 29.86 in 6.2 mi ESE 19.6 mph - N/A   Mostly Cloudy
6:00 PM 80.6 °F 86.2 °F 75.2 °F 84% 29.86 in 6.2 mi ESE 17.3 mph - N/A   Mostly Cloudy
7:00 PM 78.8 °F - 75.2 °F 89% 29.86 in 6.2 mi ESE 17.3 mph - N/A   Mostly Cloudy
8:00 PM 79 °F - 74 °F 80% 29.89 in 14 mi ESE 13.8 mph - -   Widespread Dust
8:00 PM 78.8 °F - 73.4 °F 83% 29.89 in 6.2 mi ESE 13.8 mph - N/A   Mostly Cloudy
9:00 PM 78.8 °F - 73.4 °F 83% 29.89 in 6.2 mi East 17.3 mph - N/A   Mostly Cloudy
10:00 PM 78.8 °F - 73.4 °F 83% 29.92 in 6.2 mi ESE 15.0 mph - N/A   Mostly Cloudy
11:00 PM 79 °F - 73 °F 78% 29.91 in 14 mi ESE 15.0 mph - -   Widespread Dust
11:00 PM 78.8 °F - 73.4 °F 83% 29.89 in 6.2 mi ESE 15.0 mph - N/A   Mostly Cloudy